Weather History for Central Park, NY

Change the Weather History Date:

Friday, December 2, 2011

  Actual Average Record
Temperature  
Mean Temperature 46 °F 42 °F  
Max Temperature 52 °F 48 °F 66 °F (1970)
Min Temperature 39 °F 37 °F 12 °F (1875)
Degree Days  
Heating Degree Days 19 23  
Month to date heating degree days 40 46  
Since 1 July heating degree days 702 879  
Cooling Degree Days 0 0  
Month to date cooling degree days 0 0  
Year to date cooling degree days 1331 1105  
Moisture  
Dew Point 29 °F    
Average Humidity 54    
Maximum Humidity 70    
Minimum Humidity 38    
Precipitation  
Precipitation 0.00 in 0.14 in 2.16 in (1974)
Month to date precipitation 0.00 0.28  
Year to date precipitation 68.81 46.22  
Snow  
Snow 0.00 in 0.10 in 3.90 in (1929)
Month to date snowfall 0.0 0.2  
Since 1 July snowfall 2.9 0.5  
Snow Depth 0.00 in    
Sea Level Pressure  
Sea Level Pressure 30.35 in    
Wind  
Wind Speed 5 mph (NW)    
Max Wind Speed 15 mph    
Max Gust Speed 22 mph    
Visibility 10 miles    
Events      
T = Trace of Precipitation, MM = Missing Value Source: NWS Daily Summary

Daily Weather History Graph

Daily Weather History Graph

Search for Another Location

Airport:

Trip Planner

Search our weather history database for the weather conditions in past years. The results will help you decide how hot, cold, wet, or windy it might be!

Date:

Astronomy

Dec. 02, 2011 Rise Set
Actual Time 7:01 AM EST 4:28 PM EST
Civil Twilight 6:30 AM EST 4:59 PM EST
Nautical Twilight 5:56 AM EST 5:33 PM EST
Astronomical Twilight 5:23 AM EST 6:06 PM EST
Moon 12:09 PM EST (12/2) No Moon Set
Length of Visible Light 10h 28m
Length of Day
9h 27m
First Quarter, 53% of the Moon is Illuminated
Dec 2
First Quarter
Dec 10
Full
Dec 17
Last Quarter
Dec 24
New
Jan 1
First Quarter

Hourly Weather History & Observations

Time (EST) Temp. Windchill Dew Point Humidity Pressure Visibility Wind Dir Wind Speed Gust Speed Precip Events Conditions
12:51 AM 43.0 °F 41.3 °F 25.0 °F 49% 30.31 in 10.0 mi NNE 3.5 mph - N/A   Clear
1:51 AM 42.1 °F 39.2 °F 27.0 °F 55% 30.31 in 10.0 mi NE 4.6 mph - N/A   Clear
2:51 AM 41.0 °F 38.0 °F 27.0 °F 57% 30.30 in 10.0 mi ENE 4.6 mph - N/A   Clear
3:51 AM 39.9 °F - 27.0 °F 60% 30.31 in 10.0 mi Calm Calm - N/A   Clear
4:51 AM 41.0 °F 39.0 °F 28.0 °F 60% 30.31 in 10.0 mi NNE 3.5 mph - N/A   Clear
5:51 AM 39.9 °F - 30.0 °F 68% 30.31 in 10.0 mi Calm Calm - N/A   Clear
6:51 AM 39.9 °F - 30.0 °F 68% 30.33 in 10.0 mi Calm Calm - N/A   Clear
7:51 AM 41.0 °F - 30.0 °F 65% 30.34 in 10.0 mi Calm Calm - N/A   Clear
8:51 AM 46.0 °F - 32.0 °F 58% 30.33 in 10.0 mi Calm Calm - N/A   Clear
9:51 AM 48.0 °F - 32.0 °F 54% 30.33 in 10.0 mi SW 10.4 mph 18.4 mph N/A   Clear
10:51 AM 48.9 °F - 34.0 °F 56% 30.33 in 10.0 mi SW 8.1 mph 16.1 mph N/A   Clear
11:51 AM 48.9 °F - 30.9 °F 50% 30.31 in 10.0 mi WSW 9.2 mph - N/A   Clear
12:51 PM 50.0 °F - 28.0 °F 43% 30.29 in 10.0 mi Variable 6.9 mph - N/A   Clear
1:51 PM 51.1 °F - 28.0 °F 41% 30.27 in 10.0 mi WSW 11.5 mph 16.1 mph N/A   Clear
2:51 PM 51.1 °F - 28.9 °F 43% 30.27 in 10.0 mi Variable 4.6 mph - N/A   Clear
3:51 PM 51.1 °F - 27.0 °F 39% 30.30 in 10.0 mi Variable 5.8 mph - N/A   Scattered Clouds
4:51 PM 51.1 °F - 26.1 °F 38% 30.32 in 10.0 mi West 8.1 mph - N/A   Overcast
5:51 PM 51.1 °F - 26.1 °F 38% 30.35 in 10.0 mi Variable 4.6 mph - N/A   Mostly Cloudy
6:51 PM 48.0 °F - 27.0 °F 44% 30.39 in 10.0 mi NNW 10.4 mph - N/A   Clear
7:51 PM 46.0 °F 41.4 °F 28.0 °F 50% 30.43 in 10.0 mi NNW 9.2 mph - N/A   Clear
8:51 PM 45.0 °F 40.6 °F 28.9 °F 53% 30.45 in 10.0 mi NNW 8.1 mph - N/A   Clear
9:51 PM 43.0 °F 41.3 °F 30.0 °F 60% 30.48 in 10.0 mi Variable 3.5 mph - N/A   Clear
10:51 PM 42.1 °F 37.7 °F 28.0 °F 58% 30.50 in 10.0 mi Variable 6.9 mph - N/A   Clear
11:51 PM 42.1 °F 37.7 °F 28.0 °F 58% 30.51 in 10.0 mi Variable 6.9 mph - N/A   Clear